Weather WX

World > North America > United States > Wisconsin

Pepin, Wisconsin Regional Weather

Lat: 44.44N, Lon: 92.15W
Wx Zone: WIZ026
Warning FLW WEATHER ALERT - (More Info. Click Here) Warning
Feedback

Pepin, WI Regional Weather

Expires:201906241500;;002437
ASUS43 KMKX 241400
RWRWI 

WISCONSIN REGIONAL WEATHER ROUNDUP
NATIONAL WEATHER SERVICE MILWAUKEE/SULLIVAN WI
900 AM CDT MON JUN 24 2019

NOTE: "FAIR" INDICATES FEW OR NO CLOUDS BELOW 12,000 FEET WITH NO
SIGNIFICANT WEATHER AND/OR OBSTRUCTIONS TO VISIBILITY.


WIZ001-002-006>008-014>016-023>028-241500-
NORTHWEST WISCONSIN
  
CITY           SKY/WX    TMP DP  RH WIND       PRES   REMARKS
SUPERIOR ARPT  CLOUDY    53  53 100 CALM      29.55F                  
ASHLAND        LGT RAIN  55  55 100 W8        29.53R                  
HAYWARD        CLOUDY    56  56 100 VRB5      29.56S FOG              
SIREN          CLOUDY    60  58  95 NW5       29.58S                  
CUMBERLAND     CLOUDY    55  54  94 W9        29.57S FOG              
RICE LAKE      CLOUDY    58  58  99 W7        29.58S                  
CHETEK         CLOUDY    58  58 100 W5        29.57R                  
LADYSMITH      CLOUDY    64  64  99 SW9       29.56S                  
EAU CLAIRE     CLOUDY    61  58  90 W7        29.57R                  
MENOMONIE      CLOUDY    59  56  89 W8        29.59R                  
NEW RICHMOND   CLOUDY    61  58  92 W8        29.59S                  
OSCEOLA        CLOUDY    61  58  90 W8        29.61F                  
$$
 

SKY/WX - Weather  TMP - Temperature  DP - Dew Point  RH - Relative Humidity
WIND - Wind Direction/Speed PRES - Barometric Pressure VSB - Visibility
WCI - Wind Chill Index E13G22 Wind - East Wind 13 mph/Gusts of 22 mph